[[{"header":{"parameterUnit":"m.s-1","parameterCategory":1,"la1":30.2991,"la2":30.254,"lo1":-89.0895,"lo2":-89.0444,"dy":0.0017,"dx":0.0017,"nx":28,"ny":28,"refTime":"2025-03-10T09:00:00:Z","depth":0,"parameterNumber":2,"parameterNumberName":"U-component_of_WINDS"},"data":[0,0,0,0,0,0,0,0,0,0,0,0,0,0,0,0,0,0,0,0,0,0,0,0,0,0,0,0,0,0,0,0,0,0,0,0,0,0,0,0,0,0,0,0,0,0,0,0,0,0,0,0,0,0,0,0,0,0,3.8861,3.8863,0,3.9007,3.9009,3.901,3.8967,3.8964,3.8961,3.8958,3.9108,3.9115,3.9122,0,0,0,0,0,0,0,0,0,0,0,0,0,3.8545,3.8551,3.8861,3.8863,3.8865,3.9007,3.9009,3.9011,3.8968,3.8964,3.896,3.8957,3.9106,3.9114,3.9122,0,0,0,0,0,0,0,0,0,0,0,0,0,3.8686,3.8553,3.8861,3.886,3.8862,3.9006,3.9009,3.9011,3.8969,3.8964,3.896,3.8955,3.9103,3.9113,3.9123,3.9277,0,0,3.9155,3.9159,0,0,0,0,0,0,0,0,3.8678,3.8698,3.8859,3.8861,3.8863,3.8964,3.8952,3.91,3.897,3.8928,3.8958,3.8953,3.9064,3.9077,3.9115,3.9284,3.929,3.9155,3.9162,3.9166,3.9169,0,0,0,0,0,0,0,3.8668,3.8691,3.8919,3.8861,3.8863,3.8853,3.8868,3.898,3.902,3.8931,3.8929,3.8946,3.9064,3.9105,3.9118,3.9293,3.9155,3.9164,3.9171,3.9175,3.9593,3.9598,0,0,0,0,0,0,3.8657,3.8683,3.8914,3.8923,3.8757,3.8862,3.8879,3.8936,3.9018,3.9027,3.895,3.8944,3.909,3.9106,3.9123,3.9306,3.9166,3.9176,3.9181,3.9588,3.9595,3.96,0,0,0,0,0,0,3.8651,3.8678,3.8908,3.8802,3.8831,3.8873,3.8937,3.8941,3.8982,3.9033,3.9039,3.8984,3.9087,3.9108,3.9238,3.9311,3.918,3.9189,3.9583,3.959,3.9597,3.9675,0,0,0,0,0,0,3.8642,3.8676,3.8735,3.8804,3.8837,3.9022,3.8942,3.8948,3.8999,3.8993,3.9066,3.9074,3.9085,3.9223,3.9249,3.9322,3.9197,3.9576,3.9586,3.9595,3.9666,3.9684,3.97,0,0,0,0,0,3.8631,3.8752,3.8738,3.8766,3.8911,3.9026,3.9044,3.9054,3.9006,3.9065,3.9097,3.9072,3.9299,3.9237,3.9265,3.9343,3.9572,3.9583,3.9594,3.9658,3.9681,3.9699,0,0,0,0,0,0,3.869,3.8761,3.8746,3.8893,3.8954,3.9018,3.9093,3.9077,3.9153,3.9143,3.9152,3.9169,3.9302,3.9336,3.9266,3.9495,3.9428,3.9446,3.9468,3.9489,3.9505,3.9493,3.9206,0,0,0,0,0,3.872,3.8808,3.8865,3.8989,3.902,3.9052,3.9102,3.9104,3.9167,3.9192,3.9234,3.9297,3.9382,3.9438,3.9519,3.9672,3.9686,3.9739,3.9756,3.9769,3.9783,3.9864,3.9888,3.9637,3.9637,3.9637,0,0,3.8783,3.8833,3.8887,3.9002,3.9049,3.9138,3.9073,3.9171,3.9237,3.9207,3.9332,3.9365,3.9435,3.9576,3.9641,3.9609,3.9856,3.9784,3.9794,3.9801,3.9878,3.9902,3.9923,3.9645,3.9643,3.9642,0,0,3.8944,3.8991,3.9098,3.9147,3.9219,3.9239,3.9265,3.9332,3.9353,3.9478,3.9456,3.9536,3.9683,3.9733,3.9778,3.9957,3.9936,3.9984,4.007,4.0149,4.0169,4.0186,4.0247,4.027,3.9998,3.9998,3.9998,0,3.9013,3.9147,3.9156,3.9255,3.9305,3.9282,3.939,3.9437,3.9532,3.9567,3.9531,3.9714,3.9759,3.9911,3.9954,3.9992,4.0021,3.9974,4.0165,4.0183,4.0199,4.0258,4.0281,4.0003,4.0003,4.0002,4.0002,0,3.9227,3.9321,3.9399,3.949,3.955,3.9654,3.9677,3.9737,3.9734,3.9758,3.9885,3.9939,4.003,4.0067,4.0066,4.0218,4.0196,4.0162,4.0095,4.0228,4.0283,4.0306,4.0011,4.0009,4.0007,4.0006,0,0,3.9427,3.9522,3.9551,3.9591,3.9669,3.9741,3.9844,3.9932,3.9982,4.0049,4.0133,4.0258,4.0227,4.0278,4.0283,4.0352,4.0487,4.031,4.0311,4.0338,4.0656,4.0678,4.0704,4.0475,4.0479,4.0483,4.0649,0,3.9592,3.9771,3.9782,3.9944,4.0029,4.0009,4.0098,4.0155,4.0181,4.0256,4.0285,4.0372,4.0326,4.0356,4.0424,4.0456,4.0551,4.0445,4.0552,4.0556,4.0532,4.0734,4.0758,4.0912,4.0671,4.0675,4.0677,0,3.9808,3.988,4.0051,4.0115,4.0151,4.0231,4.0312,4.0385,4.045,4.0463,4.052,4.0514,4.0618,4.0549,4.0692,4.062,4.0665,4.0687,4.0693,4.0701,4.0623,4.0744,4.0962,4.0984,4.0712,4.0709,4.0707,0,3.9933,4.0074,4.0193,4.0229,4.0308,4.0364,4.0399,4.0459,4.0511,4.0583,4.0616,4.0699,4.0744,4.0809,4.0825,4.0774,4.0967,4.09,4.0979,4.0979,4.1019,4.1015,4.1244,4.1053,4.1052,4.1052,4.1052,0,4.0114,4.0219,4.025,4.0323,4.0439,4.0451,4.0566,4.0598,4.0651,4.0729,4.0718,4.0792,4.0811,4.0888,4.0902,4.1017,4.1038,4.1051,4.1053,4.105,4.1048,4.1078,4.1066,4.1058,4.1057,4.1056,4.1055,0,4.0273,4.0298,4.0427,4.0491,4.0509,4.0592,4.0646,4.0716,4.074,4.084,4.0864,4.0902,4.0992,4.1016,4.1125,4.1134,4.1268,4.1262,4.1246,4.1245,4.1322,4.1313,4.1575,4.1609,4.1398,4.14,4.1402,0,4.0385,4.0465,4.0537,4.0589,4.0626,4.071,4.0763,4.0778,4.0833,4.0912,4.0972,4.1061,4.1133,4.1278,4.1315,4.1398,4.1391,4.1477,4.1404,4.1398,4.1389,4.1383,4.139,4.149,4.1493,4.1494,4.1496,0,4.0581,4.0589,4.0666,4.0747,4.081,4.0875,4.0937,4.098,4.1004,4.1067,4.1158,4.1214,4.1324,4.1412,4.1495,4.1532,4.1517,4.1519,4.1542,4.1538,4.1525,4.153,4.1281,4.1513,4.1511,4.151,4.1509,4.1508,4.0718,4.0787,4.0848,4.0933,4.0981,4.1039,4.1107,4.114,4.1217,4.1307,4.1312,4.1411,4.1473,4.1583,4.1624,4.1701,4.1675,4.1708,4.1716,4.1723,4.1728,4.1515,4.1717,4.1717,4.1716,4.1716,4.1716,0,4.091,4.0948,4.1027,4.1113,4.1181,4.1162,4.123,4.1286,4.1374,4.1433,4.1503,4.1608,4.1693,4.1737,4.1821,4.1875,4.187,4.1896,4.1891,4.1899,4.1749,4.1719,4.1898,4.1898,4.1898,4.1898,4.1898,4.1898,4.1018,4.1133,4.1149,4.1287,4.1325,4.1422,4.1461,4.1514,4.1561,4.1678,4.1749,4.1777,4.1829,4.1917,4.1994,4.2004,4.2035,4.2063,4.207,4.1929,4.191,4.1892,4.1864,4.2071,4.2071,4.2214,4.2215,4.2216]},{"header":{"parameterUnit":"m.s-1","parameterCategory":1,"la1":30.2991,"la2":30.254,"lo1":-89.0895,"lo2":-89.0444,"dy":0.0017,"dx":0.0017,"nx":28,"ny":28,"refTime":"2025-03-10T09:00:00:Z","depth":0,"parameterNumber":3,"parameterNumberName":"V-component_of_WINDS"},"data":[0,0,0,0,0,0,0,0,0,0,0,0,0,0,0,0,0,0,0,0,0,0,0,0,0,0,0,0,0,0,0,0,0,0,0,0,0,0,0,0,0,0,0,0,0,0,0,0,0,0,0,0,0,0,0,0,0,0,1.4098,1.4099,0,1.4205,1.4206,1.4207,1.422,1.4219,1.4218,1.4217,1.4328,1.4332,1.4336,0,0,0,0,0,0,0,0,0,0,0,0,0,1.3903,1.3907,1.4097,1.4099,1.41,1.4205,1.4206,1.4208,1.422,1.4219,1.4218,1.4217,1.4327,1.4332,1.4337,0,0,0,0,0,0,0,0,0,0,0,0,0,1.3997,1.3908,1.4097,1.4119,1.4122,1.4205,1.4206,1.4208,1.4221,1.4219,1.4218,1.4216,1.4326,1.4331,1.4337,1.4406,0,0,1.4355,1.4358,0,0,0,0,0,0,0,0,1.3992,1.4004,1.4115,1.4118,1.4121,1.4198,1.4179,1.4274,1.4221,1.4183,1.4217,1.4215,1.4286,1.4295,1.4319,1.4411,1.4416,1.4356,1.4359,1.4362,1.4364,0,0,0,0,0,0,0,1.3985,1.3999,1.414,1.4116,1.412,1.4123,1.4135,1.4197,1.4242,1.4187,1.4188,1.42,1.4288,1.4313,1.4322,1.4417,1.4356,1.4361,1.4365,1.4367,1.4569,1.4571,0,0,0,0,0,0,1.3974,1.3994,1.4137,1.4143,1.4051,1.4128,1.4141,1.4175,1.4242,1.425,1.4201,1.42,1.4304,1.4315,1.4326,1.441,1.4362,1.4367,1.4371,1.4567,1.4569,1.4571,0,0,0,0,0,0,1.397,1.3987,1.4132,1.4069,1.4088,1.4133,1.4171,1.4178,1.4203,1.4253,1.4261,1.4219,1.4303,1.4317,1.4385,1.4414,1.437,1.4376,1.4565,1.4568,1.457,1.4578,0,0,0,0,0,0,1.3965,1.3985,1.4012,1.4069,1.4091,1.419,1.4173,1.4181,1.4213,1.4213,1.4272,1.428,1.4303,1.4376,1.4391,1.4421,1.438,1.4563,1.4566,1.457,1.4576,1.4581,1.4585,0,0,0,0,0,1.3958,1.4011,1.4013,1.4031,1.4125,1.4192,1.4204,1.4229,1.4215,1.4243,1.4274,1.4278,1.4408,1.4383,1.44,1.4432,1.4561,1.4565,1.4569,1.4573,1.458,1.4585,0,0,0,0,0,0,1.3956,1.4019,1.4022,1.4095,1.4138,1.4194,1.4229,1.4235,1.4283,1.4281,1.431,1.4323,1.439,1.4418,1.4389,1.4501,1.4483,1.4491,1.4481,1.4487,1.4492,1.4484,1.4385,0,0,0,0,0,1.3964,1.4013,1.4065,1.4124,1.4145,1.4183,1.4213,1.4229,1.4274,1.4292,1.4329,1.4374,1.4424,1.4457,1.4506,1.4579,1.4592,1.4609,1.4614,1.4618,1.4624,1.4664,1.4672,1.4585,1.4585,1.4585,0,0,1.3982,1.4022,1.4051,1.4125,1.416,1.421,1.4199,1.4252,1.4289,1.4301,1.4367,1.4395,1.4446,1.4517,1.455,1.4542,1.4651,1.4623,1.4626,1.463,1.4669,1.4677,1.4685,1.4588,1.4587,1.4587,0,0,1.4039,1.4074,1.4127,1.4162,1.4215,1.4239,1.4252,1.4306,1.4325,1.4392,1.4401,1.4446,1.4532,1.4568,1.4598,1.4666,1.4671,1.4681,1.4707,1.4745,1.4752,1.4758,1.4783,1.4791,1.4688,1.4688,1.4688,0,1.4055,1.413,1.4154,1.4207,1.4239,1.425,1.4304,1.4336,1.4403,1.4424,1.4415,1.4523,1.4558,1.4636,1.4653,1.4677,1.4692,1.4675,1.4749,1.4756,1.4762,1.4785,1.4794,1.4688,1.4688,1.4688,1.4688,0,1.4146,1.4198,1.4234,1.4297,1.4332,1.4385,1.4417,1.4451,1.4462,1.4488,1.4555,1.4597,1.4655,1.4674,1.4687,1.4754,1.4748,1.4743,1.4726,1.4771,1.4793,1.4802,1.469,1.4689,1.4689,1.4689,0,0,1.4207,1.4281,1.4294,1.4322,1.438,1.442,1.4473,1.4529,1.4556,1.4601,1.4646,1.4718,1.4714,1.4747,1.4763,1.4797,1.4848,1.4788,1.479,1.4798,1.4924,1.4927,1.4937,1.4851,1.4853,1.4854,1.492,0,1.4271,1.4366,1.4388,1.4469,1.4516,1.4527,1.4573,1.4613,1.4638,1.4682,1.4709,1.4759,1.475,1.477,1.4804,1.4834,1.4873,1.483,1.4893,1.4895,1.488,1.4949,1.4953,1.5013,1.4928,1.493,1.4931,0,1.4359,1.4405,1.449,1.454,1.4561,1.4602,1.4654,1.4696,1.4741,1.4756,1.4793,1.4805,1.486,1.4839,1.4915,1.4884,1.4911,1.493,1.4933,1.494,1.4916,1.4958,1.5033,1.5041,1.4945,1.4944,1.4943,0,1.4395,1.4478,1.4539,1.4563,1.4623,1.4651,1.4677,1.4721,1.4753,1.4798,1.4818,1.487,1.4898,1.4937,1.4963,1.4945,1.5036,1.5017,1.505,1.505,1.507,1.5068,1.515,1.5087,1.5086,1.5086,1.5086,0,1.4464,1.4516,1.4556,1.4594,1.4651,1.4676,1.4733,1.4759,1.4798,1.4841,1.4853,1.4893,1.4924,1.4968,1.4988,1.5047,1.506,1.5074,1.5079,1.5073,1.5071,1.5092,1.5088,1.5089,1.5088,1.5088,1.5087,0,1.4515,1.4544,1.4611,1.4662,1.4675,1.4716,1.4759,1.4796,1.482,1.4874,1.4888,1.4926,1.4979,1.5008,1.5074,1.5087,1.5153,1.5156,1.5138,1.514,1.5171,1.5168,1.5269,1.5283,1.521,1.5211,1.5211,0,1.4558,1.4598,1.4652,1.4681,1.4708,1.4755,1.4787,1.4812,1.4845,1.4898,1.4928,1.4981,1.5025,1.5108,1.5141,1.5192,1.5196,1.5227,1.5203,1.5196,1.5196,1.5193,1.5197,1.5232,1.5233,1.5233,1.5234,0,1.463,1.4642,1.4687,1.4737,1.4774,1.4815,1.4855,1.4878,1.491,1.4946,1.4999,1.5033,1.5099,1.5152,1.5204,1.5231,1.5238,1.5241,1.5251,1.5246,1.5234,1.524,1.5149,1.5238,1.5238,1.5238,1.5237,1.5237,1.4679,1.4714,1.4757,1.4807,1.4839,1.4876,1.4913,1.4941,1.4985,1.5041,1.5053,1.5109,1.5152,1.5223,1.5251,1.5295,1.5289,1.5304,1.5308,1.5312,1.5313,1.5226,1.5305,1.5305,1.5305,1.5305,1.5305,0,1.4752,1.478,1.4825,1.488,1.4919,1.492,1.4964,1.4997,1.5045,1.5085,1.5127,1.5187,1.5238,1.5274,1.5325,1.5353,1.5357,1.5366,1.5364,1.537,1.5315,1.5301,1.5361,1.5361,1.5361,1.5361,1.5361,1.5361,1.4795,1.4854,1.4871,1.4946,1.4974,1.5028,1.5053,1.5087,1.5118,1.5185,1.5226,1.5249,1.5288,1.5341,1.5387,1.5396,1.5415,1.5423,1.5432,1.538,1.5374,1.5369,1.5355,1.5426,1.5426,1.5484,1.5484,1.5485]}]]